Location: Cactus School
(34.5700°N, 118.0931°W)
Time: 05:23:00
(UTC-07:00)

Transit 4A - Pass Details

Date: 20 April 2024
Orbit: 871 x 971 km, 66.8° (Epoch: 22 May)

Event Time Altitude Azimuth Distance (km) Brightness Sun altitude
Rises 11:23:14 0° 151° (SSE) 3,556 11.4 59.8°
Reaches altitude 10° 11:27:52 10° 119° (ESE) 2,592 10.9 60.5°
Maximum altitude 11:29:37 11° 102° (ESE) 2,490 10.7 60.7°
Drops below altitude 10° 11:31:21 10° 85° (E) 2,577 10.6 61.0°
Sets 11:35:53 0° 53° (NE) 3,499 10.9 61.6°
